Location: B?jaj?g
(11.7167°N, 92.6667°E)
Time: 12:41:10
(UTC+00:00)

YAOGAN 1 - Pass Details

Date: 18 September 2020
Orbit: 618 x 620 km, 97.9° (Epoch: 25 October)

Event Time Altitude Azimuth Distance (km) Brightness Sun altitude
Rises 13:20:31 0° 186° (S) 2,885 6.0 -23.4°
Reaches altitude 10° 13:22:53 10° 196° (SSW) 1,980 5.2 -24.0°
Maximum altitude 13:26:43 32° 259° (W) 1,066 4.3 -24.9°
Drops below altitude 10° 13:30:35 10° 323° (NW) 1,981 5.7 -25.9°
Sets 13:32:57 0° 333° (NNW) 2,886 6.4 -26.4°
